User: anonymous   Login
Location: Writing-on-Stone Provincial Park
(49.0825°N, 111.6163°W)
Time: 18:43:54
(UTC-06:00)
Language:

BREEZE-M DEB (TANK) - Orbit

View from above orbital plane
View from above orbital plane
View from above satellite
View from above satellite

Ground track
Ground track

The orbit data is extracted from the following two-line orbital elements,

1 29649U 06056B   17291.92197740 +.00000459 +00000-0 +83929-4 0  9999
2 29649 049.4917 143.3380 5380368 238.6904 057.8040 04.99821124193976
Epoch (UTC): 18 October 2017 22:07:38
Eccentricity: 0.5380368
inclination: 49.4917°
perigee height: 297 km
apogee height: 15846 km
right ascension of ascending node: 143.3380°
argument of perigee: 238.6904°
revolutions per day: 4.99821124
mean anomaly at epoch: 57.8040°
orbit number at epoch: 19397

The dashed part of the orbit path shows where the satellite is in the earth's shadow,  

DLR